Regional Weather Roundup
Issued by NWS

Home | Current Version | Previous Version | Graphics & Text | Print | Product List | Glossary On
Versions: 1 2 3 4 5 6 7 8 9 10 11 12 13 14 15 16 17 18 19 20 21 22 23 24 25 26 27 28 29 30 31 32 33 34 35 36 37 38 39 40 41 42 43 44 45 46 47 48 49 50
000
ASUS43 KOAX 251102
RWRNE

WEATHER ROUNDUP FOR NEBRASKA
NATIONAL WEATHER SERVICE OMAHA NE
600 AM CDT SAT APR 25 2015

NOTES: SATELLITE DATA IS BEING USED TO AUGMENT CLOUD COVER ABOVE
       12000 FEET.
       "FAIR" INDICATES FEW OR NO CLOUDS BELOW 12,000 FEET WITH NO
       SIGNIFICANT WEATHER AND/OR OBSTRUCTIONS TO VISIBILITY.

  * THESE STATIONS DO NOT REPORT WEATHER SUCH AS RAIN...SNOW OR FOG.

NEZ001>004-019>022-054>056-251200-
NEBRASKA PANHANDLE

CITY           SKY/WX    TMP DP  RH WIND       PRES   REMARKS
SCOTTSBLUFF    CLEAR     40  32  73 NW8       29.67S WCI  34
ALLIANCE       PTCLDY    38  36  92 NW6       29.66R WCI  33
CHADRON        PTCLDY    36  35  96 W7        29.66R WCI  30
KIMBALL        CLEAR     43  36  74 NW10      29.68S
SIDNEY         CLEAR     41  37  86 NW10      29.68R
$$

NEZ057>060-069>072-079>082-251200-
SOUTHWEST NEBRASKA

CITY           SKY/WX    TMP DP  RH WIND       PRES   REMARKS
IMPERIAL       PTCLDY    44  40  85 NW7       29.63R
LEXINGTON      CLOUDY    53  50  91 NW13      29.55S
MCCOOK         CLOUDY    50  46  86 NW10      29.58R
OGALLALA       PTCLDY    46  44  93 W8        29.63R
$$

NEZ005>010-023>029-035>040-094-251200-
NORTH CENTRAL NEBRASKA

CITY           SKY/WX    TMP DP  RH WIND       PRES   REMARKS
VALENTINE      MOCLDY    49  47  93 NW6       29.61R
AINSWORTH      MOCLDY    49  47  92 NW6       29.58R
BROKEN BOW     MOCLDY    47  44  90 NW6       29.54R
O`NEILL        CLOUDY    54  52  94 NE10      29.57R FOG
ORD            CLOUDY    54  52  93 N9        29.53R
$$

NEZ041-046>049-061>064-073>077-083>087-251200-
SOUTH CENTRAL NEBRASKA

CITY           SKY/WX    TMP DP  RH WIND       PRES   REMARKS
GRAND ISLAND   RAIN      53  52  96 N13       29.52R FOG
AURORA         LGT RAIN  53  53 100 N12       29.50R
HASTINGS       LGT RAIN  54  53  97 N13       29.50R FOG
HEBRON         RAIN      54  52  94 NW12      29.45R
HOLDREGE       MOCLDY    50  49  97 NW7       29.54R FOG
KEARNEY *      MOCLDY    52  46  82 NW6       29.53R
YORK           RAIN      54  54 100 N14       29.49R
$$

NEZ011>018-030>034-042>045-251200-
NORTHEAST NEBRASKA

CITY           SKY/WX    TMP DP  RH WIND       PRES   REMARKS
NORFOLK        LGT RAIN  51  49  92 NE12G18   29.55R FOG
ALBION         CLOUDY    52  51  93 E10G16    29.52S FOG
BLAIR          HVY RAIN  49  47  93 NE13      29.48R
COLUMBUS *     CLOUDY    52  45  76 NE14      29.52R
FREMONT        RAIN      51  50  95 NE7       29.50R
TEKAMAH        LGT RAIN  50  48  93 N14       29.52R FOG
WAYNE          LGT RAIN  48  47  96 NE17G24   29.57R
$$

NEZ050>053-065>068-078-088>093-251200-
SOUTHEAST NEBRASKA

CITY           SKY/WX    TMP DP  RH WIND       PRES   REMARKS
LINCOLN        CLOUDY    55  53  93 NE15      29.46R
OMAHA EPPLEY   LGT RAIN  52  50  93 E13       29.48R
BEATRICE       CLOUDY    55  54  95 N13       29.41R
FALLS CITY     CLOUDY    56  54  93 SE6       29.38S
NEBRASKA CITY  RAIN      54  54 100 NE15      29.43R
PLATTSMOUTH    DRIZZLE   53  51  93 NE14      29.45S
$$

NEZ044-045-051>053-067-251200-
OMAHA AREA

CITY           SKY/WX    TMP DP  RH WIND       PRES   REMARKS
OMAHA EPPLEY   LGT RAIN  52  50  93 E13       29.48R
BLAIR          HVY RAIN  49  47  93 NE13      29.48R
FREMONT        RAIN      51  50  95 NE7       29.50R
MILLARD        LGT RAIN  54  52  94 NE5       29.47S
OFFUTT AFB     LGT RAIN  53  52  95 NE9       29.46R
PLATTSMOUTH    DRIZZLE   53  51  93 NE14      29.45S
WAHOO          LGT RAIN  52  49  90 NE14      29.47R
$$


USA.gov is the U.S. government's official web portal to all federal, state and local government web resources and services.